Location: Ashtead
(51.3000°N, 0.3000°W)
Time: 12:02:15
(UTC+00:00)

Cosmos 292 Rocket - Pass Details

Date: 26 September 2023
Orbit: 670 x 689 km, 74.0° (Epoch: 29 November)

Event Time Altitude Azimuth Distance (km) Brightness Sun altitude
Exits shadow 04:00:44 12° 188° (S) 2,024 5.9 -18.0°
Maximum altitude 04:05:10 60° 110° (ESE) 783 4.2 -17.3°
Drops below altitude 10° 04:09:54 10° 31° (NNE) 2,131 7.0 -16.7°
Sets 04:12:13 0° 28° (NNE) 3,048 7.9 -16.3°
